CDT,Max TemperatureF,Mean TemperatureF,Min TemperatureF,Max Dew PointF,MeanDew PointF,Min DewpointF,Max Humidity, Mean Humidity, Min Humidity, Max Sea Level PressureIn, Mean Sea Level PressureIn, Min Sea Level PressureIn, Max VisibilityMiles, Mean VisibilityMiles, Min VisibilityMiles, Max Wind SpeedMPH, Mean Wind SpeedMPH, Max Gust SpeedMPH,PrecipitationIn, CloudCover, Events, WindDirDegrees
2011-10-1,82,66,50,46,40,37,63,44,20,29.93,29.89,29.83,10,10,2,21,15,26,0.00,0,,226
2011-10-2,75,62,50,50,47,45,87,64,36,29.96,29.90,29.86,10,10,3,18,10,21,0.01,0,Rain,44
2011-10-3,75,60,46,54,48,45,93,67,38,30.08,30.03,29.94,10,10,10,14,9,17,0.00,0,Rain,48
2011-10-4,75,60,44,54,48,45,100,76,41,30.02,29.86,29.66,10,9,1,20,12,24,2.42,1,,95
2011-10-5,82,68,55,50,45,41,72,45,24,29.61,29.53,29.48,10,10,10,21,14,31,0.00,0,,165
2011-10-6,71,66,60,52,46,39,68,50,33,29.55,29.52,29.48,10,10,10,25,19,34,0.00,2,Rain,139
2011-10-7,62,58,53,57,53,46,100,91,63,29.47,29.33,29.24,10,6,0,20,8,26,0.07,6,Fog-Rain,114
2011-10-8,,,,,,,,,,,,,,,,,,,,,,
2011-10-9,,,,,,,,,,,,,,,,,,,,,,
2011-10-10,,,,,,,,,,,,,,,,,,,,,,
2011-10-11,,,,,,,,,,,,,,,,,,,,,,
2011-10-12,,,,,,,,,,,,,,,,,,,,,,
2011-10-13,,,,,,,,,,,,,,,,,,,,,,
2011-10-14,48,42,35,39,36,32,93,76,58,30.01,29.97,29.93,10,10,10,18,15,25,0.00,6,,295
2011-10-15,53,42,32,37,33,30,100,78,44,29.95,29.91,29.87,10,10,9,12,7,16,0.00,2,Rain,272
2011-10-16,50,41,32,32,28,25,93,65,37,30.07,30.02,29.95,10,10,10,21,13,29,0.00,0,,293
2011-10-17,48,40,33,28,26,23,75,58,43,30.15,30.07,29.98,10,10,10,23,13,30,0.00,0,,298
2011-10-18,50,39,28,32,29,25,93,68,43,30.27,30.22,30.17,10,10,9,15,8,17,0.00,5,,306
2011-10-19,53,38,24,32,28,23,93,67,41,30.25,30.14,29.99,10,10,10,17,7,22,0.00,0,,152
2011-10-20,62,48,33,37,28,25,70,56,34,29.97,29.87,29.78,10,10,7,22,15,29,0.00,0,,200
2011-10-21,55,45,35,36,33,27,87,65,38,30.09,30.02,29.89,10,10,5,17,9,21,0.00,2,,301
2011-10-22,64,48,32,39,33,28,93,64,26,30.05,29.89,29.81,10,10,10,25,12,34,0.00,1,,241
2011-10-23,55,45,35,45,39,34,100,75,54,29.95,29.86,29.83,10,10,5,18,10,24,0.03,3,Rain-Thunderstorm,253
2011-10-24,46,37,28,39,34,27,100,83,57,30.02,29.99,29.95,10,10,8,16,9,22,0.00,3,Rain,197
2011-10-25,41,37,33,39,37,32,100,97,87,30.18,30.07,29.98,10,7,2,15,8,20,0.20,7,Rain,50
2011-10-26,44,38,32,34,30,27,100,83,49,30.22,30.14,30.02,10,10,9,15,9,18,0.02,2,Rain,263
2011-10-27,48,39,30,36,28,25,93,72,43,30.02,29.93,29.87,10,10,7,22,12,31,0.00,1,Rain,245
2011-10-28,48,38,28,27,23,19,74,57,34,30.14,30.08,30.01,10,10,10,14,11,20,0.00,0,,267
2011-10-29,50,42,33,36,28,19,81,60,45,29.88,29.71,29.61,10,10,10,26,14,34,0.00,5,Rain,234
2011-10-30,48,39,30,28,27,25,86,73,40,30.01,29.94,29.85,10,10,10,15,13,21,0.00,0,,276
2011-10-31,55,45,35,37,33,27,81,60,51,29.90,29.70,29.64,10,10,10,23,15,31,0.00,3,,272